Wind_Speed
53 52 53 54 54 54 55 56 57 58 59 59 60 62 66 70 73 76 79 82 85 88 89 90 92 93 95 96 98 99 100 102 103 105 107 110 111 112 111 111 111 111 111 112 113 114 114 115 115 115 116 117 117 117 118 118 118 118 118 118 118 118 119 119 118 118 118 118 118 118 118 118 117 117 117 117 117 117 117 117 117 117 117 117 116
55 54 54 55 55 56 57 57 58 59 61 61 61 62 64 66 68 72 75 78 81 84 86 88 90 92 94 96 97 98 99 100 101 102 104 107 109 111 112 114 115 115 116 116 117 118 118 118 117 117 118 118 118 118 118 118 118 118 118 119 120 121 121 121 120 120 121 121 121 121 121 121 121 120 120 120 120 119 119 119 118 118 117 117 116
57 57 56 56 57 58 59 59 59 60 61 63 64 65 65 65 66 68 71 75 78 81 82 84 87 90 93 94 96 97 98 99 101 102 103 104 106 108 110 112 115 117 118 119 120 121 121 120 120 120 120 120 120 120 120 119 119 119 119 119 120 120 120 120 121 122 122 123 123 122 122 122 122 121 121 120 120 119 119 119 118 118 118 117 117
60 59 59 58 58 59 61 61 61 61 62 63 65 66 67 67 68 68 69 71 74 77 80 82 84 87 89 91 93 94 95 97 99 101 102 104 105 108 109 111 112 113 115 117 119 120 121 121 121 122 122 123 123 123 122 121 121 121 121 122 122 122 122 122 123 123 123 124 124 123 123 123 122 122 122 121 121 120 120 120 120 120 120 119 119
64 63 62 61 61 62 63 64 64 64 64 65 66 67 68 69 70 71 71 71 72 74 77 79 81 84 85 87 88 89 92 94 96 98 100 102 104 106 108 110 110 111 111 112 114 115 117 118 119 121 123 124 124 124 124 125 124 124 124 125 125 125 126 126 126 126 126 126 125 125 125 124 124 124 124 123 123 123 122 122 122 122 122 122 122
70 68 66 65 64 65 66 66 66 67 67 67 68 69 70 70 71 72 73 73 73 74 75 77 79 81 82 84 86 87 89 91 93 95 97 99 101 103 105 107 108 108 109 110 112 113 114 115 116 117 119 121 122 123 124 125 125 125 126 126 127 128 128 128 128 128 128 128 127 127 127 126 126 127 126 126 126 125 125 124 124 124 124 124 124
76 73 72 70 69 69 69 69 69 69 69 70 70 71 72 72 73 74 75 76 76 76 77 77 78 78 80 82 84 85 87 88 91 92 94 96 98 100 101 102 103 104 105 107 108 110 112 113 114 115 117 118 119 120 120 121 122 123 123 124 126 127 127 127 128 129 128 128 128 127 127 128 128 128 128 128 127 127 126 126 126 126 126 126 125
83 80 78 76 75 74 73 73 72 73 73 73 73 74 74 75 75 76 77 78 78 79 79 80 80 79 79 80 81 83 84 87 89 91 93 94 96 97 98 99 100 100 102 103 104 106 108 109 111 112 114 115 116 117 118 118 119 119 120 121 122 123 124 124 125 125 125 125 125 125 125 126 126 126 127 127 126 125 125 125 125 125 125 124 124
87 86 84 82 80 79 78 77 76 77 77 77 77 77 77 77 78 79 79 80 80 81 81 82 82 82 82 81 81 82 83 85 88 90 92 93 94 95 96 97 98 99 100 101 102 103 104 105 107 108 109 110 112 113 114 115 116 116 117 118 119 120 120 121 121 120 120 120 120 120 121 121 122 122 123 123 122 122 121 121 122 122 121 121 121
87 88 89 88 86 84 82 81 80 80 81 81 81 80 80 80 81 81 82 82 82 83 83 83 84 84 84 84 84 84 84 85 86 88 90 92 93 94 96 96 97 98 99 100 101 101 102 103 104 105 105 106 107 108 109 110 111 111 112 113 114 115 116 117 116 116 116 116 116 115 116 116 117 117 118 117 117 117 117 117 117 117 116 116 117
85 86 88 90 90 89 87 85 84 83 83 84 84 84 84 84 83 84 85 85 85 85 86 85 86 86 86 86 86 87 87 88 88 88 88 90 91 93 95 96 97 98 99 99 100 100 101 102 103 104 105 105 106 107 107 108 108 108 109 109 110 110 111 112 111 111 111 111 110 111 111 112 112 112 112 112 112 112 111 111 112 112 112 111 112
83 84 85 87 90 91 91 90 89 87 86 86 87 87 88 88 87 87 88 88 88 88 88 88 88 88 88 88 88 89 89 90 90 90 90 90 91 92 93 94 96 97 99 99 100 101 102 103 104 105 105 106 106 107 108 108 108 108 108 108 108 108 109 109 108 108 107 107 107 108 108 108 108 108 109 109 109 109 108 108 108 109 108 108 108
81 82 83 85 87 89 90 91 91 91 90 90 90 90 91 92 92 91 91 91 92 92 92 92 91 91 91 91 91 91 91 92 92 93 93 93 93 94 94 94 95 96 97 98 100 102 103 103 105 105 106 106 107 108 108 108 108 108 108 107 107 108 108 108 108 107 107 106 106 107 107 106 107 107 108 109 108 107 107 106 107 107 107 106 107
79 80 81 82 84 87 88 89 90 92 93 94 94 94 94 94 95 95 95 94 95 95 95 96 95 94 94 94 94 93 93 94 95 95 95 95 95 96 96 97 97 97 98 98 99 101 102 102 104 105 105 106 107 108 108 109 109 109 109 108 108 108 109 109 108 108 107 107 107 107 107 107 108 108 109 108 108 107 107 106 106 107 106 105 106
76 78 79 81 82 84 86 87 88 89 91 94 96 96 97 97 97 97 98 97 97 97 98 99 99 98 98 97 97 97 97 97 97 97 97 97 97 98 98 99 99 100 100 101 102 102 102 101 102 102 103 104 105 106 108 109 109 110 109 109 109 109 110 110 109 109 109 109 109 109 109 109 109 109 109 109 108 108 108 107 107 107 107 106 106
73 74 76 79 80 82 83 85 86 87 89 91 94 96 98 99 99 100 100 100 100 100 100 101 102 102 102 101 101 101 101 101 101 101 100 100 100 100 101 101 102 102 103 104 104 104 104 103 103 103 102 102 103 104 105 106 107 107 107 108 108 109 109 110 110 110 109 110 110 110 110 110 110 110 110 110 110 110 110 109 109 109 108 107 107
71 72 74 76 78 80 81 83 84 86 88 89 91 94 96 98 100 101 102 102 102 102 102 103 104 104 105 105 104 104 104 104 104 104 104 104 103 103 103 104 104 104 104 105 106 106 106 106 105 105 104 103 104 104 104 104 104 104 104 104 105 106 106 107 108 107 107 108 109 109 109 110 110 111 111 111 111 111 111 111 110 110 110 109 109
72 72 73 74 76 77 79 81 82 83 85 87 89 92 94 96 97 99 101 103 104 103 104 104 105 106 107 107 107 107 107 107 107 107 108 108 107 106 106 106 107 107 106 107 107 107 108 108 107 107 107 106 106 105 105 105 105 104 104 103 103 104 104 104 104 104 103 104 104 105 105 106 107 108 109 109 110 110 110 110 110 111 111 110 110
74 74 74 74 75 75 77 78 80 81 83 85 87 89 92 94 95 96 98 100 103 104 105 105 106 106 107 108 108 109 109 110 110 110 110 111 110 110 109 109 110 110 109 109 110 110 110 110 110 110 109 109 108 107 107 107 107 107 106 106 105 105 106 105 105 104 103 103 102 102 102 103 103 104 105 106 106 106 107 107 108 109 109 110 110
76 75 75 75 75 75 75 77 78 80 81 83 85 87 89 92 94 95 96 98 99 101 103 104 105 106 107 108 108 109 109 110 110 111 112 113 113 113 112 112 112 113 113 112 112 112 112 112 112 113 112 112 111 110 109 109 109 109 108 108 108 108 108 108 108 108 107 106 105 104 104 104 104 105 105 105 104 104 104 104 104 105 106 107 108
79 77 76 76 75 75 75 76 77 78 80 82 83 85 88 90 91 93 95 96 97 99 100 102 103 105 106 107 108 109 109 109 109 110 112 113 114 115 114 114 115 115 116 115 115 114 115 115 115 115 115 115 114 113 112 112 111 111 110 110 110 110 111 111 111 111 111 110 108 107 107 107 107 107 107 107 106 105 104 104 104 103 104 105 106
82 81 80 79 78 77 76 76 77 78 79 81 82 84 86 88 89 91 92 94 95 97 99 100 101 103 104 105 106 107 108 108 109 109 110 112 113 114 115 116 117 117 118 118 117 117 117 118 118 118 118 118 118 117 116 115 114 114 113 113 112 112 112 112 112 112 113 112 111 110 110 109 109 109 109 109 108 107 106 105 105 104 105 105 106
85 84 83 82 82 81 79 78 78 79 80 81 82 83 84 86 88 89 90 92 93 95 97 98 100 101 103 104 105 105 106 107 107 108 109 110 112 113 114 115 116 117 119 119 119 119 119 120 121 121 121 121 121 120 120 119 118 117 116 116 115 115 115 114 114 113 114 115 114 113 112 111 111 111 111 111 109 108 108 107 106 106 106 107 107
87 85 85 84 84 84 83 82 81 81 81 82 83 83 84 85 86 88 89 90 91 93 94 96 98 99 101 103 104 104 105 105 105 106 107 109 110 111 113 114 115 116 117 118 119 120 120 121 122 123 124 124 124 124 123 123 122 121 120 119 119 118 118 117 116 116 116 117 117 116 115 114 113 113 113 112 111 110 109 109 109 109 109 109 110
87 86 85 85 85 85 85 85 84 83 83 83 84 84 85 86 86 87 88 89 91 92 93 94 96 97 99 101 102 103 104 104 105 105 106 107 108 109 110 111 112 114 115 116 117 118 119 120 122 124 125 126 126 126 126 125 125 124 123 123 122 122 121 120 120 119 119 119 120 120 118 117 117 117 116 115 114 113 112 112 112 112 112 113 114
87 86 86 85 84 84 85 85 85 84 84 84 85 85 86 87 88 88 89 89 90 92 92 93 94 95 97 98 99 101 102 103 104 104 105 105 106 107 108 109 110 111 112 113 115 116 116 117 119 121 123 125 126 127 127 127 127 127 126 125 125 124 124 123 123 123 122 122 122 123 123 121 120 120 119 118 117 116 116 116 115 116 116 117 117
87 86 86 85 84 84 84 84 84 84 85 85 86 86 87 87 88 90 90 91 91 92 93 94 94 95 96 97 98 98 99 100 101 103 104 104 105 105 106 107 107 108 109 110 112 113 114 114 115 117 119 121 123 125 126 127 127 127 128 127 127 126 125 125 126 126 125 125 125 125 125 124 122 121 121 121 120 120 119 119 119 119 119 119 120
87 87 86 85 85 84 83 83 83 84 84 85 86 87 87 88 89 90 91 92 93 93 94 95 95 95 95 96 97 97 98 98 99 99 101 102 103 104 105 105 106 106 107 108 109 110 111 112 112 113 115 117 120 121 123 124 125 126 127 127 126 126 126 126 127 127 127 127 126 126 126 124 122 122 122 122 122 122 121 121 121 121 121 122 122
87 87 87 86 84 83 82 82 82 83 83 84 85 86 87 88 89 90 91 92 93 94 95 95 96 96 96 96 96 96 97 98 98 98 99 100 101 102 102 103 104 105 106 106 107 108 108 109 110 111 112 113 115 117 119 120 122 123 124 125 125 124 124 125 125 126 126 126 126 126 125 124 122 122 122 122 122 122 122 121 121 122 122 123 123
87 87 87 86 85 83 81 80 80 80 81 82 84 85 86 87 89 90 92 93 94 94 95 96 96 96 96 96 96 96 97 97 98 98 99 99 99 100 100 101 101 102 103 104 105 106 106 107 108 108 109 110 111 113 115 116 118 120 121 122 122 122 122 122 123 123 123 123 123 124 124 123 122 122 121 121 121 121 121 121 121 122 122 123 123
86 86 85 85 84 83 81 80 79 79 79 80 82 83 84 85 87 89 91 92 94 95 95 96 96 96 97 97 97 97 97 97 97 98 98 99 99 99 99 99 99 100 100 101 102 103 104 105 106 107 107 108 108 110 112 113 115 116 117 118 119 119 120 120 120 120 120 120 121 121 121 122 122 122 121 120 120 120 120 120 120 121 121 122 122
82 83 83 82 82 82 81 80 79 79 78 79 80 81 82 83 85 86 88 90 92 94 95 96 96 96 96 97 98 98 99 99 98 97 97 98 98 98 99 99 99 99 99 100 100 101 102 103 104 105 105 106 107 108 109 111 112 114 115 115 116 116 117 118 118 118 118 118 119 119 120 120 121 121 121 121 120 120 120 120 120 120 120 121 121
79 79 79 79 79 79 79 79 80 79 79 79 78 79 80 81 82 84 86 87 89 91 92 94 95 95 96 96 98 99 100 100 100 99 98 97 97 97 98 98 99 100 100 100 101 101 101 102 102 103 104 105 106 107 108 110 111 112 113 114 114 115 115 116 116 117 117 117 118 118 119 120 121 121 121 121 121 121 121 121 120 120 121 121 121
75 75 75 75 76 77 77 78 79 79 78 78 77 77 77 78 79 81 83 85 86 88 89 90 91 93 94 95 97 98 99 100 100 100 99 98 98 97 97 97 98 99 99 100 101 101 102 102 102 103 103 104 105 106 107 109 110 111 112 113 113 114 114 115 115 116 116 117 118 118 119 120 120 121 121 121 122 122 122 122 122 122 122 123 123
71 72 72 73 73 74 75 76 76 77 76 75 76 76 75 75 77 78 80 82 83 84 85 86 87 89 90 92 94 95 95 96 98 99 100 100 99 98 98 98 98 99 99 100 100 101 102 103 103 103 103 104 105 106 107 108 110 111 112 112 113 114 115 115 115 115 116 117 118 119 120 120 121 121 121 122 123 123 123 124 124 124 124 125 125
68 68 68 69 70 70 71 72 73 74 73 73 73 74 74 74 76 76 77 78 79 80 81 82 84 85 87 88 89 89 90 91 93 95 96 98 98 99 99 99 99 99 99 100 100 100 101 103 104 104 105 105 106 107 108 108 110 111 112 112 113 114 115 116 116 116 117 118 119 121 121 121 121 122 122 123 124 125 125 125 125 125 126 127 128
65 66 66 66 66 66 67 68 69 70 71 70 70 71 72 73 74 75 74 75 75 76 78 79 82 83 84 84 85 85 86 87 89 91 92 94 96 97 98 98 98 99 99 100 100 100 100 101 103 104 105 106 108 109 110 110 110 111 112 112 113 115 116 116 117 117 118 119 120 122 123 122 122 123 124 124 125 125 126 126 126 127 128 128 129
63 64 64 63 63 63 64 65 66 67 68 68 67 68 70 71 72 72 72 72 72 73 75 77 79 79 80 81 81 82 82 83 85 87 89 90 92 94 95 96 97 97 98 99 99 99 99 100 101 102 103 105 107 109 110 111 112 112 112 112 113 115 116 117 118 118 119 120 121 123 124 124 125 125 126 126 127 127 127 128 128 129 129 130 130
60 61 60 60 60 60 61 62 63 64 64 64 64 65 67 69 70 70 69 70 70 71 73 75 75 75 75 76 78 78 79 80 81 83 85 86 89 90 92 93 94 95 96 97 98 98 98 98 99 100 101 102 105 107 108 109 111 113 113 112 114 115 116 117 119 120 120 121 122 123 125 126 127 128 128 128 128 128 129 129 130 130 129 129 130
58 57 57 57 57 59 59 59 60 60 60 60 60 62 64 66 67 67 68 68 69 70 71 71 71 71 72 73 74 75 75 76 77 79 81 83 85 87 88 90 91 92 93 94 95 96 96 96 97 98 99 100 102 104 105 106 108 110 111 111 112 114 116 117 119 120 121 121 122 123 125 126 128 129 130 130 131 131 131 131 130 129 129 129 130
56 55 54 54 55 58 58 57 57 57 57 57 57 59 61 63 64 65 66 66 68 68 68 68 69 70 71 71 72 72 72 73 74 75 78 80 81 83 84 86 87 88 90 91 92 93 93 93 94 95 96 97 99 100 102 103 104 105 106 107 109 111 113 115 117 118 119 120 121 123 124 125 127 129 130 131 132 132 132 131 131 130 130 130 130
54 53 52 52 53 56 57 56 56 55 55 55 55 56 58 59 60 62 63 65 65 65 66 67 68 69 69 70 70 70 71 72 73 74 76 78 79 80 82 83 84 85 86 87 88 88 88 89 89 90 91 92 94 95 97 98 99 100 101 101 102 105 107 110 111 113 114 116 118 120 122 124 126 128 129 130 131 131 131 131 131 131 131 131 130
51 50 50 50 51 53 53 54 54 54 54 54 54 54 55 56 58 59 60 61 62 62 63 65 65 66 67 68 68 69 69 70 72 72 74 76 77 78 79 79 80 81 82 82 83 83 83 83 84 84 85 86 88 90 91 92 93 94 95 95 95 97 100 102 104 105 107 109 111 113 116 118 120 122 125 127 128 128 128 128 129 129 129 128 127
50 48 48 48 48 49 49 50 50 51 52 52 52 52 54 55 56 57 58 59 59 60 61 62 62 63 64 65 65 66 67 68 69 70 71 72 74 75 75 75 76 76 77 78 78 78 78 78 79 80 81 81 83 85 86 88 89 90 91 91 90 92 93 95 97 98 99 101 103 105 108 110 111 114 116 118 120 120 121 121 122 122 122 121 120
49 47 46 46 46 46 47 47 47 47 49 49 49 50 52 54 54 55 56 57 58 58 59 59 60 61 62 63 63 63 64 65 66 67 68 69 70 71 72 72 73 73 74 75 75 75 75 75 76 77 77 78 79 81 83 84 85 86 87 87 87 87 88 89 90 92 93 95 98 99 101 102 104 106 108 110 110 111 112 113 113 114 114 114 113
47 46 45 45 45 45 45 46 45 45 46 47 48 49 50 51 52 52 53 54 55 56 56 57 58 59 60 61 61 62 62 63 64 65 65 66 67 68 68 69 69 70 71 71 72 72 72 72 73 73 74 76 76 78 79 81 82 83 84 83 83 83 83 84 86 87 89 91 93 94 95 96 98 99 101 102 102 102 104 105 106 107 107 108 107
46 45 45 44 44 44 44 44 44 44 45 45 46 47 48 49 49 50 51 51 52 53 53 55 56 57 58 58 59 59 60 61 61 62 62 63 64 64 65 66 66 67 67 67 68 68 68 69 69 71 72 73 74 75 76 77 78 79 80 80 80 79 80 81 83 85 86 88 89 90 91 93 94 94 95 96 96 97 99 100 101 102 102 102 102
44 44 44 44 43 43 43 43 43 44 44 44 44 45 46 47 47 48 48 49 50 51 51 52 53 54 54 55 56 57 57 58 58 59 60 60 61 61 62 63 63 63 64 64 64 64 65 66 67 68 69 71 72 72 73 73 74 76 77 78 77 77 77 78 80 82 83 84 85 86 88 89 90 90 91 92 93 94 95 96 96 97 97 97 97
42 42 42 42 42 42 42 42 43 43 43 43 43 43 44 45 46 46 47 47 48 49 49 50 50 51 52 52 53 54 55 55 56 57 57 58 58 59 59 59 60 60 60 60 61 62 63 63 64 65 66 67 68 69 70 71 71 72 73 74 74 74 74 75 76 78 79 80 81 82 83 85 87 87 87 88 89 90 91 92 92 92 92 92 92
41 40 40 40 41 41 41 41 41 41 41 42 42 42 43 44 44 45 45 46 46 47 48 48 49 49 50 50 51 52 53 53 54 54 55 55 56 56 56 56 57 57 57 58 59 59 60 61 62 62 63 64 65 66 67 68 69 69 69 70 71 71 72 72 72 73 75 76 77 78 80 82 83 84 84 84 85 86 87 87 87 87 87 87 87
39 39 38 39 39 40 40 40 40 40 40 41 41 41 42 42 43 43 44 44 44 45 46 46 47 48 48 49 49 50 50 51 51 52 52 53 53 54 54 54 55 55 55 56 56 57 58 59 59 60 61 61 62 62 63 64 65 66 66 67 68 68 69 70 70 71 72 73 75 76 77 79 81 81 81 81 82 82 83 83 84 84 84 84 84
Wind_Direction
279 277 274 272 269 267 265 263 261 259 258 257 256 254 253 252 252 251 250 250 249 249 248 248 248 248 249 249 249 249 249 249 249 248 248 248 248 248 248 248 248 248 248 248 248 248 248 248 248 248 249 249 250 250 250 251 251 252 252 252 253 253 253 254 254 255 255 256 256 257 257 257 258 258 258 259 259 259 260 260 261 261 262 263 263
278 276 273 271 268 266 265 263 262 261 259 258 257 256 255 253 253 253 252 251 251 250 249 249 248 248 248 248 248 249 249 250 250 249 249 249 249 249 249 249 249 248 248 248 248 248 248 248 249 249 250 250 250 251 251 251 252 252 252 253 253 253 254 254 255 255 255 256 256 257 257 257 258 258 259 259 259 260 260 261 261 262 262 262 263
278 276 273 271 268 266 265 263 262 261 260 260 259 258 257 256 255 254 253 252 252 251 251 250 249 248 248 247 247 248 248 249 249 249 249 250 250 250 250 249 249 249 249 249 249 249 250 250 250 251 251 251 252 252 252 252 252 253 253 253 253 254 254 254 254 255 255 255 256 256 257 257 258 258 258 259 259 260 260 261 261 261 262 262 262
280 278 275 273 270 268 265 263 261 260 259 259 258 258 258 258 257 256 254 254 253 253 252 251 250 250 249 249 249 248 248 249 249 249 249 250 250 250 250 250 249 249 249 249 250 251 251 251 252 252 252 253 253 253 253 253 253 253 254 254 254 254 254 254 254 255 255 255 256 256 257 257 258 258 259 259 260 260 260 261 261 261 262 262 262
281 279 277 275 273 270 267 265 263 260 259 258 257 257 256 257 257 257 256 256 255 254 254 252 251 251 251 250 250 250 249 249 249 249 249 249 249 250 250 250 250 250 250 251 251 251 252 252 252 252 253 253 253 253 254 254 254 254 254 254 254 254 254 254 255 255 255 256 256 257 258 258 259 259 259 260 260 260 260 261 261 261 262 262 262
282 280 278 276 274 272 270 267 265 262 260 258 257 256 256 255 255 255 255 255 255 255 255 255 254 253 252 251 251 250 250 250 249 249 249 249 249 249 250 250 250 251 251 251 251 252 252 252 252 252 252 253 253 253 253 254 254 254 254 254 255 255 255 255 256 256 256 257 257 258 258 259 259 259 260 260 260 260 261 261 261 261 261 262 262
283 281 279 277 275 273 271 269 267 265 263 260 259 257 256 256 256 255 255 254 254 254 254 255 255 254 254 253 253 252 251 251 251 250 250 250 249 250 250 250 250 251 251 251 251 252 252 252 252 253 253 253 253 253 254 254 254 254 254 254 255 255 256 256 256 257 257 257 258 258 259 259 259 260 260 260 260 261 261 261 261 262 262 262 262
284 282 279 277 275 273 271 269 268 267 265 263 261 260 258 257 257 256 256 255 254 253 253 253 254 254 254 254 254 253 253 252 252 251 251 251 251 250 250 250 250 250 250 250 251 251 252 252 252 252 253 253 254 254 254 254 254 254 254 255 255 255 256 256 256 257 257 258 258 258 259 259 259 260 260 260 261 261 261 261 261 262 262 262 262
283 281 279 277 274 272 270 269 267 266 265 264 263 261 260 259 258 257 257 256 255 254 254 253 253 253 253 253 253 253 253 253 253 253 252 252 252 252 252 252 251 251 251 251 251 251 251 252 252 252 253 253 254 254 255 255 255 255 255 255 255 256 256 256 256 257 257 257 258 258 259 259 259 260 260 260 260 261 261 261 261 261 261 262 262
279 279 278 277 275 272 270 268 266 265 264 264 263 262 261 260 260 259 258 257 257 256 255 254 254 253 253 252 252 252 252 252 252 253 253 253 253 253 253 252 252 252 252 251 251 251 252 252 253 253 253 253 253 254 254 255 255 255 255 255 256 256 256 256 257 257 257 258 258 258 259 259 259 259 260 260 260 260 260 261 261 261 261 261 261
275 275 275 275 275 273 271 269 267 265 263 263 263 262 261 260 259 259 259 258 258 257 256 255 254 254 254 253 253 253 253 252 252 252 252 253 253 253 253 253 252 252 252 252 252 252 252 252 253 253 253 253 253 254 254 254 254 255 255 255 255 256 256 257 257 257 258 258 258 258 258 259 259 259 260 260 260 260 260 260 260 260 260 261 261
275 274 273 273 273 273 272 271 269 266 264 262 261 261 260 259 258 258 258 258 258 258 257 257 256 255 255 254 253 253 253 253 253 253 252 252 253 253 253 253 253 253 253 253 253 252 252 252 252 252 253 253 253 254 254 254 254 254 255 255 256 256 257 257 257 258 258 258 258 258 258 259 259 259 259 259 259 259 259 259 260 260 260 260 260
276 274 273 271 271 271 270 270 269 268 266 263 261 260 259 259 258 257 257 257 257 258 258 257 257 256 256 255 254 254 253 253 253 253 252 252 252 253 253 253 253 253 253 253 253 252 252 252 252 252 253 253 253 254 254 254 255 255 255 255 256 256 256 257 257 257 257 258 258 258 258 259 259 259 259 259 259 259 259 259 259 260 260 260 260
278 276 275 272 271 270 269 268 268 267 267 265 264 262 260 259 258 258 257 256 256 256 257 257 257 256 256 255 255 254 254 253 253 253 253 252 252 252 253 253 253 253 253 253 252 252 252 252 252 252 253 253 254 254 254 255 255 255 255 255 256 256 256 257 257 257 257 257 258 258 258 258 258 259 259 259 259 260 260 259 259 260 260 260 260
278 277 275 274 272 270 269 268 267 266 265 265 265 264 262 261 259 258 258 257 256 255 255 255 256 256 255 255 255 255 254 254 253 253 253 253 252 252 252 253 253 253 253 253 252 252 252 252 252 252 252 253 254 254 254 255 255 255 255 255 255 256 256 256 257 257 257 257 257 257 257 258 258 258 258 259 259 259 259 259 259 259 260 260 260
277 276 274 273 272 270 269 268 267 266 265 264 264 263 263 262 261 260 258 257 257 256 255 255 255 255 255 255 254 254 254 254 254 253 253 252 252 252 252 252 253 253 253 253 253 254 253 253 253 253 253 253 253 254 254 255 255 255 255 255 255 255 256 256 256 256 256 257 257 257 257 257 257 258 258 258 258 258 258 259 259 259 259 259 259
276 275 273 272 271 271 270 269 268 267 266 265 264 263 262 262 262 261 260 259 257 256 256 255 255 254 254 254 254 254 254 254 254 254 254 253 252 252 252 252 252 253 253 254 254 254 254 254 254 254 254 254 254 254 255 255 255 256 256 256 256 256 256 256 256 256 256 256 257 257 257 257 257 257 258 258 258 258 258 258 258 258 258 258 258
277 276 275 273 272 271 270 269 268 267 267 266 265 264 263 262 262 261 261 260 259 257 256 255 255 254 254 254 254 254 254 254 254 254 254 254 254 253 253 253 253 253 253 253 254 254 254 255 255 254 254 254 254 254 255 255 256 256 256 256 257 257 257 256 256 256 256 256 257 257 257 257 258 258 258 258 258 258 258 258 258 258 259 258 258
279 277 276 275 274 272 271 270 269 268 267 266 265 264 263 263 262 262 261 261 260 260 258 257 255 254 254 254 254 254 253 253 254 254 254 254 254 254 254 254 254 254 253 253 253 254 255 255 255 255 255 254 254 254 254 255 255 255 256 256 257 257 257 257 257 257 256 256 256 257 257 257 258 258 258 258 258 258 258 259 259 259 259 259 259
280 278 277 276 274 274 272 271 270 269 268 266 265 264 263 262 262 262 261 261 261 260 260 260 258 257 256 255 254 254 253 253 253 253 254 254 254 254 254 254 254 255 255 254 254 254 255 255 255 256 255 255 255 254 254 254 254 255 255 255 256 256 257 257 258 258 257 257 257 257 257 257 258 258 258 258 258 258 259 259 259 259 259 259 259
281 280 279 277 275 273 271 270 269 268 267 266 265 264 263 262 262 261 261 261 261 260 260 260 260 259 258 257 256 255 254 254 253 253 253 253 254 254 254 254 254 254 254 255 255 255 255 255 256 256 256 256 256 255 255 255 255 255 255 255 255 255 256 256 257 258 258 258 257 257 257 257 257 258 258 258 259 259 259 259 259 260 260 260 260
282 281 280 279 277 274 272 270 269 268 267 266 265 264 263 263 262 262 261 261 260 260 260 259 259 259 259 259 258 257 257 256 254 254 253 253 253 253 253 253 253 254 254 254 254 254 255 255 256 256 256 257 257 257 256 256 256 255 255 255 255 255 255 255 256 257 258 258 258 257 257 257 257 258 258 259 259 259 259 260 260 260 260 260 260
282 281 280 280 279 277 275 273 271 269 268 267 266 265 264 263 263 262 261 261 260 260 260 259 259 259 259 259 259 258 258 257 257 256 255 254 253 253 253 253 253 253 254 254 254 254 254 254 255 256 257 257 257 258 257 257 257 257 256 256 256 256 256 256 256 256 257 257 257 257 257 257 257 257 258 258 258 259 259 259 260 260 260 260 260
282 281 280 279 278 277 276 275 273 271 270 268 267 266 265 264 264 263 262 261 261 260 259 259 259 258 258 258 258 258 258 257 257 257 256 256 255 254 254 253 253 253 253 253 254 254 254 254 254 255 256 256 257 258 258 258 258 258 258 258 257 257 257 257 257 257 257 257 258 258 257 257 257 257 258 258 258 258 258 259 259 259 259 260 260
281 280 279 278 277 276 275 274 274 272 271 270 268 267 267 266 265 264 263 263 262 261 260 259 259 258 258 257 257 258 258 257 257 256 256 256 256 255 255 254 254 254 253 253 253 253 253 253 254 254 255 256 256 257 257 258 258 258 258 258 258 258 258 258 258 258 258 258 258 259 258 258 258 258 258 258 258 258 258 258 258 259 259 259 259
281 279 278 277 276 274 274 273 272 272 271 270 269 268 267 266 266 265 264 263 263 262 262 261 260 259 259 258 257 257 257 257 257 257 256 256 256 256 255 255 255 254 254 254 254 254 253 253 253 253 254 255 256 256 257 257 258 258 259 259 259 259 259 259 259 259 259 259 259 259 259 259 259 259 259 259 259 259 259 259 259 259 259 259 259
280 279 277 276 275 274 272 272 271 270 270 269 268 267 266 265 265 265 264 264 263 263 262 262 261 260 260 260 259 258 257 257 257 257 257 257 256 256 256 256 255 255 254 254 254 254 254 254 253 253 253 254 255 255 256 257 257 258 258 258 259 259 259 259 259 259 259 259 260 260 260 260 260 260 260 260 260 260 260 260 260 260 260 260 260
279 278 277 276 274 273 272 271 270 269 268 268 267 267 266 265 264 264 263 263 263 263 262 262 262 261 260 260 260 260 260 259 258 257 257 257 257 256 256 256 256 256 256 255 255 254 254 254 254 253 253 253 254 254 255 256 256 257 257 258 258 258 259 259 259 259 259 259 260 260 260 261 261 261 261 261 261 261 260 260 260 260 260 260 260
279 278 277 276 274 273 272 270 269 268 267 267 266 266 266 265 265 264 263 262 262 262 262 262 262 261 261 260 260 260 260 260 260 260 259 258 257 257 256 256 256 256 256 256 256 255 255 255 254 254 254 253 253 254 254 255 255 256 257 257 257 258 258 258 258 259 259 259 260 260 261 261 261 261 261 261 261 261 261 261 261 261 261 261 261
279 278 277 276 276 275 273 271 270 268 267 266 265 265 264 264 264 264 263 262 261 261 261 261 261 261 261 261 261 260 260 260 260 260 260 260 259 259 258 257 257 256 256 256 256 255 255 255 255 255 254 254 254 254 254 254 255 255 256 256 257 257 257 257 258 258 259 259 260 260 261 261 261 261 261 261 261 261 261 261 261 261 261 261 261
278 278 277 277 277 276 275 274 272 270 268 267 266 265 264 263 262 262 262 262 261 261 260 260 260 260 260 261 261 261 260 260 259 259 259 259 259 260 260 259 259 258 257 257 256 256 256 256 255 255 255 255 255 255 255 255 255 255 256 256 256 257 257 257 257 258 258 258 259 259 260 260 261 261 261 261 261 261 261 261 262 262 262 262 262
280 279 279 278 277 276 275 274 272 270 268 267 265 264 264 263 262 261 261 260 260 260 260 260 260 259 259 260 260 261 261 261 260 259 258 258 258 258 259 259 260 260 259 259 258 257 257 256 256 256 256 256 255 255 255 255 255 256 256 256 257 257 257 257 258 258 258 258 258 259 259 260 260 261 261 261 262 262 262 262 262 262 263 263 263
281 280 279 278 277 276 275 274 272 270 269 267 265 264 263 262 262 262 261 260 260 259 259 258 258 258 258 258 258 259 259 260 261 260 260 259 258 258 257 257 258 259 259 259 259 258 258 257 257 257 256 256 256 256 256 256 256 256 256 257 257 257 257 257 258 258 258 258 258 259 259 259 259 260 261 261 262 262 262 262 263 263 263 264 264
282 281 280 278 277 276 275 274 273 272 271 269 268 266 264 263 262 261 261 260 260 259 259 258 258 257 257 257 257 257 257 258 259 260 260 260 260 259 258 257 257 257 257 258 258 258 258 258 258 257 257 257 257 256 256 256 256 257 257 257 257 258 258 258 258 258 259 259 259 259 259 259 259 260 260 261 261 262 262 263 263 264 264 264 265
282 281 279 278 277 276 275 275 274 273 272 271 270 269 267 265 263 262 261 260 260 260 260 259 258 257 257 256 256 256 257 257 257 258 259 259 259 259 259 258 257 257 257 257 257 257 258 258 258 258 258 258 257 257 257 257 257 257 257 257 258 258 258 259 259 259 259 259 259 259 259 259 260 260 260 261 261 261 262 262 263 263 264 264 265
282 280 279 278 277 276 275 275 274 274 273 272 271 270 269 267 265 263 262 261 261 261 261 260 259 258 257 257 257 256 256 256 256 256 257 257 258 258 258 258 258 257 257 257 256 256 257 257 258 258 258 258 258 258 258 257 257 258 258 258 258 258 259 259 259 259 259 259 260 260 260 260 260 260 260 261 261 261 262 262 262 263 263 264 264
283 281 280 278 278 277 276 275 274 274 273 272 271 270 269 268 266 265 264 263 262 261 261 260 259 258 258 258 257 257 256 256 256 256 256 256 257 257 257 257 257 257 257 257 257 256 256 256 256 257 257 258 258 258 258 258 258 258 258 258 259 259 259 259 259 259 259 259 260 260 261 261 261 261 261 261 261 261 262 262 262 262 263 263 264
284 282 281 280 279 278 276 275 274 273 273 272 272 271 270 269 268 267 266 265 264 262 261 260 259 259 259 258 258 257 256 256 256 255 256 256 256 257 257 257 257 257 257 257 257 257 256 256 256 256 256 256 256 257 257 258 258 258 258 258 258 259 259 259 260 260 260 260 260 260 261 261 261 261 261 261 261 262 262 262 262 262 262 263 263
286 284 284 283 281 279 277 276 275 274 273 272 271 270 269 269 268 268 267 266 265 264 263 262 261 261 260 259 258 257 257 256 255 255 255 255 255 256 256 257 257 256 257 257 257 257 257 257 257 256 256 255 255 256 256 256 256 257 257 257 257 258 258 259 259 259 259 259 259 260 260 261 261 262 262 262 262 262 262 262 262 263 263 264 264
289 288 286 285 283 281 278 276 275 274 273 272 271 269 269 268 268 267 267 266 265 265 264 264 263 263 262 260 260 259 258 257 257 256 256 255 255 255 256 256 256 256 256 256 257 257 257 257 257 256 256 256 256 256 256 256 255 256 256 256 256 256 256 257 257 258 258 258 258 259 259 259 260 261 261 262 262 262 263 263 263 264 264 265 265
292 290 288 286 284 281 279 278 276 275 274 273 271 269 268 267 267 267 266 265 265 264 265 265 264 263 263 262 261 261 261 260 259 258 258 258 257 257 257 257 257 257 257 257 257 257 258 258 257 257 257 256 256 256 256 256 256 255 255 255 254 255 255 255 256 256 257 257 257 258 258 258 258 259 260 260 261 262 262 263 264 264 265 265 266
293 291 288 286 283 282 282 281 280 279 277 276 273 271 269 268 267 266 265 264 264 264 264 264 263 263 263 263 262 262 261 261 260 260 259 259 259 258 258 258 258 258 258 258 258 258 258 258 258 257 257 256 256 256 256 256 256 256 255 254 254 254 254 254 255 255 255 255 256 256 256 256 257 258 258 259 260 261 261 262 263 264 264 265 266
293 291 289 286 284 283 283 283 283 281 280 278 276 274 273 271 269 267 266 266 265 264 264 263 263 263 263 263 262 262 261 261 260 260 260 260 260 260 259 259 259 259 259 259 259 259 259 258 258 257 257 256 256 256 256 256 256 255 255 255 254 254 253 254 254 254 254 254 254 255 255 255 256 256 257 258 259 260 260 261 262 263 263 264 265
296 294 291 289 287 285 283 282 281 280 279 278 277 276 274 272 270 269 269 268 267 266 265 265 265 264 264 264 263 263 262 262 261 261 260 260 261 261 261 261 261 260 260 260 260 260 259 259 258 258 257 256 256 256 256 255 255 255 255 255 254 254 254 254 254 254 254 254 254 254 254 254 255 255 256 257 257 258 259 260 260 261 262 263 264
298 297 294 291 288 286 284 282 281 280 279 278 277 275 273 272 271 271 270 269 268 268 268 267 267 266 266 265 265 264 263 263 262 261 261 261 261 261 261 261 260 260 260 260 259 259 258 258 257 257 256 256 255 255 255 255 255 255 255 255 255 254 254 254 254 254 254 254 254 254 254 254 254 255 255 256 257 258 258 259 260 261 261 262 263
299 298 296 294 291 289 287 285 284 282 280 279 277 276 274 273 273 271 270 269 269 268 268 267 266 266 265 265 264 264 263 263 262 262 261 261 260 260 260 260 260 260 259 259 259 258 258 257 256 256 255 255 254 254 254 254 255 255 255 255 255 254 254 254 254 254 254 254 254 254 254 255 255 255 256 257 257 258 258 259 259 260 260 261 262
301 299 298 296 294 293 291 289 287 285 283 281 280 278 277 275 274 272 271 269 269 268 267 266 265 265 265 264 264 264 263 263 263 263 262 262 261 261 261 261 260 260 259 259 258 258 257 257 256 255 255 255 254 253 253 253 254 254 255 255 254 254 253 253 253 253 253 253 254 254 255 255 255 255 256 257 257 257 258 258 258 259 260 260 261
302 301 300 299 297 295 293 291 290 288 286 284 282 280 278 277 275 273 271 270 269 268 267 266 265 265 265 265 265 265 264 264 264 264 263 263 262 262 262 261 261 260 260 259 259 258 258 257 256 255 255 254 254 254 253 253 252 253 254 254 254 253 253 253 253 254 254 254 254 255 255 256 256 256 256 257 257 257 258 258 258 259 259 260 260
304 303 301 300 298 297 295 294 292 291 289 287 285 282 280 278 277 275 274 272 271 270 269 268 267 267 266 266 266 265 265 265 265 264 264 264 264 263 262 262 261 261 261 260 260 259 259 258 257 256 255 254 254 254 254 253 253 252 253 253 254 254 253 253 253 254 254 255 255 256 256 256 257 257 257 257 257 258 258 259 260 260 261 261 262
306 305 303 302 300 299 298 296 295 293 291 289 287 284 282 281 279 278 276 275 274 273 272 271 270 269 268 267 266 266 266 266 266 265 265 265 264 264 263 263 262 261 261 261 260 260 260 259 259 258 257 256 255 254 254 254 254 253 253 253 253 254 253 253 253 253 254 255 255 256 256 256 257 257 257 258 258 259 259 260 261 262 262 263 263
308 306 304 303 302 301 300 299 297 296 294 292 290 287 286 284 282 280 279 278 277 275 274 273 273 272 271 270 269 268 268 267 267 266 266 265 265 264 264 263 263 262 261 261 260 260 259 259 259 258 258 257 257 256 255 255 255 254 254 253 253 253 253 253 253 252 253 253 254 255 255 256 256 257 257 257 257 258 259 260 260 261 262 262 263
Height
10452 10451 10450 10448 10447 10446 10445 10444 10442 10441 10440 10439 10438 10438 10437 10436 10435 10436 10436 10436 10436 10438 10440 10443 10445 10447 10448 10449 10451 10452 10454 10458 10463 10466 10467 10467 10467 10470 10473 10475 10477 10479 10480 10480 10479 10478 10479 10480 10482 10484 10485 10487 10489 10491 10494 10497 10501 10504 10506 10509 10510 10511 10512 10514 10517 10520 10520 10521 10522 10523 10525 10526 10527 10529 10531 10533 10535 10537 10539 10541 10542 10544 10545 10546 10547
10444 10442 10441 10439 10438 10437 10436 10434 10433 10432 10430 10429 10428 10427 10427 10427 10427 10427 10426 10425 10425 10426 10428 10431 10432 10432 10433 10434 10436 10438 10440 10444 10448 10449 10450 10451 10454 10456 10458 10459 10460 10462 10463 10463 10462 10462 10464 10467 10469 10472 10474 10475 10476 10479 10482 10486 10489 10492 10493 10495 10495 10497 10499 10502 10505 10506 10505 10506 10507 10509 10510 10512 10513 10516 10518 10520 10523 10525 10526 10527 10529 10530 10532 10533 10534
10434 10432 10431 10430 10429 10428 10427 10425 10424 10423 10421 10420 10419 10417 10416 10417 10418 10417 10415 10415 10414 10414 10417 10419 10419 10418 10419 10421 10422 10424 10427 10430 10431 10432 10434 10437 10439 10439 10440 10441 10442 10445 10447 10448 10448 10449 10453 10457 10459 10461 10462 10463 10464 10467 10471 10474 10477 10479 10480 10480 10481 10483 10486 10489 10490 10489 10489 10491 10493 10494 10496 10498 10500 10503 10505 10507 10510 10512 10513 10514 10515 10516 10518 10519 10520
10423 10422 10421 10420 10419 10418 10417 10415 10415 10414 10412 10410 10409 10408 10407 10406 10406 10406 10405 10405 10404 10403 10405 10406 10406 10407 10408 10410 10412 10415 10417 10417 10417 10419 10421 10422 10422 10422 10423 10424 10426 10429 10433 10435 10437 10439 10442 10446 10448 10449 10450 10450 10452 10454 10458 10461 10463 10464 10465 10466 10467 10469 10471 10473 10473 10473 10475 10477 10478 10481 10483 10485 10488 10489 10491 10495 10497 10498 10499 10501 10502 10503 10504 10505 10506
10412 10411 10410 10409 10408 10407 10406 10405 10404 10404 10402 10400 10399 10398 10398 10396 10395 10394 10395 10395 10394 10393 10393 10394 10395 10396 10397 10399 10401 10404 10404 10404 10405 10406 10406 10406 10407 10406 10407 10409 10412 10417 10421 10423 10425 10426 10428 10431 10433 10434 10433 10434 10436 10439 10441 10444 10446 10448 10449 10451 10452 10453 10454 10456 10457 10459 10461 10463 10467 10470 10471 10473 10475 10475 10477 10481 10482 10484 10486 10487 10488 10489 10489 10491 10492
10400 10400 10399 10398 10396 10394 10393 10392 10392 10392 10391 10390 10389 10387 10387 10386 10384 10384 10384 10384 10384 10383 10383 10382 10383 10385 10386 10387 10389 10391 10391 10391 10392 10392 10392 10393 10393 10393 10393 10396 10400 10404 10407 10409 10410 10411 10412 10414 10417 10418 10417 10418 10420 10422 10425 10427 10430 10432 10434 10435 10436 10437 10439 10442 10444 10445 10448 10451 10455 10457 10457 10459 10461 10460 10462 10465 10466 10470 10472 10473 10474 10475 10475 10476 10478
10386 10386 10386 10384 10383 10381 10380 10379 10378 10378 10379 10378 10378 10377 10376 10375 10374 10373 10372 10372 10372 10372 10372 10371 10372 10373 10374 10375 10376 10378 10380 10380 10379 10379 10380 10380 10381 10381 10382 10385 10388 10390 10392 10394 10395 10396 10397 10399 10401 10402 10403 10403 10404 10407 10410 10412 10414 10416 10418 10420 10421 10422 10426 10429 10429 10430 10434 10438 10440 10442 10443 10445 10445 10446 10447 10449 10452 10455 10457 10458 10459 10460 10460 10461 10463
10368 10370 10371 10371 10369 10368 10367 10366 10365 10364 10364 10365 10365 10364 10364 10363 10362 10361 10360 10360 10360 10361 10361 10360 10360 10361 10362 10363 10363 10365 10367 10367 10366 10366 10367 10368 10368 10369 10371 10373 10375 10377 10377 10379 10380 10381 10383 10384 10385 10386 10388 10389 10390 10392 10395 10397 10399 10401 10403 10405 10406 10408 10411 10413 10413 10416 10420 10422 10425 10428 10429 10429 10431 10431 10431 10434 10437 10439 10441 10443 10444 10444 10445 10446 10447
10352 10351 10352 10354 10355 10355 10354 10353 10352 10351 10350 10350 10351 10351 10351 10351 10350 10349 10348 10348 10348 10349 10349 10349 10349 10349 10351 10351 10352 10352 10353 10353 10353 10353 10354 10355 10356 10358 10359 10361 10363 10363 10364 10366 10368 10369 10370 10370 10370 10372 10374 10376 10377 10378 10379 10381 10384 10387 10388 10390 10391 10393 10394 10396 10400 10403 10405 10408 10411 10414 10414 10414 10415 10416 10416 10419 10422 10424 10426 10426 10427 10429 10430 10431 10431
10341 10337 10335 10335 10336 10338 10339 10340 10340 10339 10338 10336 10336 10337 10337 10337 10337 10336 10336 10335 10335 10335 10336 10337 10337 10337 10338 10340 10340 10340 10340 10340 10340 10341 10342 10342 10343 10344 10345 10347 10349 10349 10351 10353 10355 10356 10358 10357 10357 10360 10361 10362 10363 10364 10365 10366 10369 10372 10373 10375 10376 10378 10380 10382 10386 10389 10390 10394 10397 10398 10399 10399 10399 10400 10401 10404 10407 10409 10410 10411 10411 10413 10415 10416 10416
10331 10328 10324 10320 10318 10319 10320 10322 10324 10325 10325 10324 10322 10322 10322 10323 10323 10323 10323 10323 10322 10322 10322 10323 10324 10324 10325 10327 10328 10328 10328 10328 10328 10330 10330 10330 10331 10331 10331 10332 10334 10335 10337 10340 10341 10344 10345 10344 10345 10346 10345 10347 10349 10350 10352 10352 10353 10356 10358 10360 10363 10365 10366 10368 10372 10375 10377 10380 10382 10383 10384 10384 10385 10387 10388 10390 10392 10393 10395 10397 10397 10398 10400 10402 10402
10318 10317 10314 10311 10307 10305 10304 10303 10305 10307 10309 10310 10308 10307 10307 10307 10308 10309 10309 10309 10309 10309 10309 10310 10310 10311 10312 10313 10315 10315 10315 10316 10316 10318 10318 10318 10319 10318 10318 10320 10321 10322 10324 10326 10327 10329 10330 10330 10330 10331 10332 10334 10335 10335 10337 10338 10339 10342 10345 10348 10351 10352 10353 10355 10358 10362 10364 10366 10368 10368 10370 10371 10372 10373 10373 10374 10376 10378 10381 10384 10383 10383 10386 10389 10388
10305 10303 10302 10300 10297 10294 10292 10290 10288 10288 10290 10291 10292 10292 10291 10291 10292 10293 10294 10294 10294 10294 10294 10295 10296 10297 10298 10299 10301 10302 10302 10302 10303 10304 10304 10306 10307 10305 10305 10308 10309 10309 10309 10312 10313 10313 10314 10316 10316 10318 10320 10321 10321 10322 10324 10325 10327 10330 10333 10336 10338 10339 10340 10341 10344 10347 10349 10352 10353 10354 10356 10358 10358 10357 10357 10359 10362 10365 10367 10370 10370 10370 10372 10375 10374
10292 10289 10287 10285 10284 10281 10279 10278 10277 10275 10273 10272 10273 10274 10275 10275 10275 10276 10277 10279 10279 10279 10279 10280 10281 10282 10283 10284 10285 10287 10288 10288 10289 10289 10290 10292 10293 10292 10293 10294 10295 10295 10296 10298 10298 10295 10298 10302 10303 10305 10307 10308 10309 10310 10311 10312 10314 10316 10320 10323 10324 10326 10327 10328 10330 10333 10335 10337 10339 10340 10342 10343 10343 10343 10344 10345 10348 10350 10352 10355 10356 10356 10358 10361 10360
10278 10275 10272 10270 10269 10267 10265 10263 10263 10262 10260 10258 10256 10256 10256 10257 10258 10259 10260 10261 10263 10264 10264 10264 10265 10266 10267 10269 10270 10271 10272 10273 10274 10274 10275 10277 10279 10279 10280 10280 10280 10281 10281 10282 10281 10281 10285 10289 10289 10291 10295 10296 10295 10296 10297 10298 10299 10302 10306 10309 10311 10312 10314 10315 10317 10319 10321 10322 10324 10325 10327 10328 10329 10329 10330 10332 10334 10336 10337 10339 10341 10341 10343 10347 10347
10265 10262 10258 10255 10253 10251 10250 10249 10247 10247 10246 10244 10242 10241 10239 10239 10240 10241 10242 10244 10245 10246 10248 10248 10249 10250 10251 10252 10254 10255 10256 10257 10258 10259 10260 10261 10263 10264 10265 10266 10266 10266 10267 10266 10266 10268 10271 10274 10275 10278 10282 10283 10282 10282 10284 10285 10286 10289 10292 10294 10297 10299 10300 10301 10303 10306 10308 10308 10309 10311 10313 10315 10315 10316 10317 10318 10320 10321 10322 10324 10327 10327 10328 10332 10333
10251 10248 10245 10242 10239 10237 10236 10235 10233 10232 10230 10229 10228 10226 10225 10224 10223 10223 10223 10225 10228 10229 10231 10231 10232 10233 10234 10236 10237 10239 10240 10241 10242 10243 10244 10245 10247 10249 10250 10250 10251 10252 10252 10252 10253 10254 10256 10258 10261 10264 10267 10269 10268 10270 10272 10273 10273 10275 10278 10280 10282 10283 10285 10287 10289 10292 10294 10294 10295 10297 10299 10300 10300 10301 10302 10303 10304 10306 10308 10310 10312 10312 10314 10317 10319
10236 10234 10231 10228 10226 10225 10224 10222 10220 10219 10217 10215 10213 10211 10209 10208 10208 10207 10206 10206 10208 10211 10213 10215 10216 10217 10218 10219 10221 10222 10224 10225 10226 10227 10228 10229 10231 10233 10235 10236 10236 10237 10238 10238 10238 10239 10241 10243 10245 10248 10251 10253 10254 10256 10258 10259 10261 10262 10264 10266 10268 10268 10270 10272 10275 10278 10280 10280 10281 10283 10284 10285 10286 10287 10287 10288 10290 10291 10293 10295 10296 10297 10299 10301 10303
10221 10219 10217 10215 10213 10212 10211 10209 10207 10205 10203 10202 10200 10197 10194 10192 10192 10192 10192 10191 10191 10192 10194 10196 10198 10200 10201 10203 10204 10206 10208 10209 10210 10211 10212 10213 10214 10217 10219 10221 10221 10221 10223 10224 10224 10225 10227 10228 10229 10231 10234 10236 10239 10241 10243 10245 10247 10248 10250 10252 10254 10254 10255 10257 10260 10262 10265 10266 10268 10270 10270 10272 10272 10271 10272 10274 10275 10277 10279 10280 10281 10283 10284 10285 10287
10206 10205 10203 10202 10201 10200 10197 10195 10193 10190 10188 10186 10184 10182 10180 10178 10177 10177 10177 10177 10176 10176 10177 10177 10179 10181 10183 10185 10186 10188 10191 10192 10194 10195 10196 10197 10198 10200 10202 10205 10206 10206 10207 10209 10210 10211 10212 10213 10214 10214 10216 10219 10222 10225 10228 10230 10231 10233 10236 10238 10240 10240 10240 10242 10244 10245 10248 10251 10254 10256 10257 10258 10258 10257 10257 10259 10261 10263 10264 10265 10267 10268 10269 10269 10271
10190 10189 10188 10186 10185 10185 10183 10181 10179 10175 10173 10171 10169 10166 10164 10163 10163 10163 10162 10162 10161 10161 10162 10162 10162 10163 10164 10165 10167 10169 10172 10175 10177 10178 10180 10180 10181 10183 10185 10187 10189 10190 10190 10192 10195 10196 10197 10197 10198 10198 10200 10202 10205 10208 10212 10214 10216 10218 10222 10223 10225 10226 10226 10227 10229 10230 10232 10235 10239 10241 10242 10243 10243 10242 10243 10245 10247 10248 10250 10251 10253 10254 10254 10254 10255
10173 10172 10171 10169 10167 10167 10166 10165 10163 10161 10158 10156 10154 10152 10150 10148 10147 10148 10147 10147 10147 10146 10146 10146 10146 10146 10147 10148 10149 10151 10153 10155 10158 10160 10162 10163 10164 10166 10167 10169 10172 10173 10174 10175 10178 10180 10181 10181 10182 10182 10184 10185 10188 10191 10193 10196 10199 10203 10206 10207 10210 10211 10211 10213 10215 10216 10217 10219 10222 10225 10226 10228 10229 10228 10229 10231 10232 10234 10236 10237 10239 10239 10239 10240 10240
10156 10155 10154 10152 10150 10148 10147 10146 10145 10144 10142 10141 10139 10137 10135 10133 10132 10132 10132 10131 10131 10131 10130 10130 10131 10130 10130 10131 10132 10134 10136 10138 10140 10142 10143 10145 10147 10148 10150 10152 10154 10155 10157 10158 10161 10163 10165 10166 10167 10167 10168 10169 10171 10173 10175 10178 10182 10185 10188 10190 10193 10194 10195 10198 10201 10203 10203 10202 10204 10208 10211 10214 10214 10213 10215 10217 10219 10221 10222 10224 10225 10224 10225 10225 10225
10140 10139 10138 10136 10134 10131 10129 10128 10127 10126 10125 10124 10123 10122 10120 10119 10117 10116 10116 10115 10114 10115 10114 10114 10114 10115 10114 10114 10115 10117 10119 10121 10123 10124 10126 10127 10129 10130 10132 10134 10136 10138 10140 10141 10143 10146 10148 10150 10152 10153 10153 10153 10155 10156 10158 10160 10164 10166 10169 10172 10174 10177 10179 10182 10185 10186 10187 10186 10187 10190 10195 10198 10198 10198 10200 10202 10205 10207 10208 10210 10210 10209 10210 10211 10210
10124 10123 10121 10120 10119 10116 10114 10112 10111 10110 10109 10108 10106 10105 10104 10103 10102 10101 10100 10099 10097 10097 10098 10098 10098 10098 10098 10099 10100 10100 10101 10103 10105 10107 10109 10110 10111 10113 10114 10116 10118 10120 10122 10124 10126 10129 10131 10133 10136 10137 10137 10138 10139 10140 10141 10144 10146 10149 10151 10154 10157 10159 10162 10165 10167 10168 10170 10171 10171 10173 10177 10181 10181 10182 10184 10187 10190 10192 10193 10194 10195 10195 10195 10195 10195
10107 10105 10103 10103 10103 10102 10099 10097 10097 10096 10094 10092 10090 10088 10087 10087 10085 10085 10084 10084 10082 10080 10080 10081 10081 10081 10081 10081 10083 10085 10086 10086 10088 10090 10092 10093 10095 10096 10097 10099 10101 10103 10105 10107 10109 10111 10113 10116 10119 10120 10121 10122 10123 10124 10125 10127 10129 10131 10134 10136 10139 10141 10144 10148 10149 10151 10153 10154 10155 10156 10157 10161 10163 10166 10169 10172 10174 10176 10177 10179 10179 10179 10179 10179 10180
10089 10087 10086 10085 10085 10084 10083 10082 10082 10081 10078 10076 10073 10072 10070 10069 10068 10067 10067 10067 10066 10065 10064 10063 10064 10065 10065 10064 10065 10067 10069 10071 10072 10073 10074 10076 10077 10079 10080 10081 10083 10086 10088 10090 10091 10093 10095 10098 10101 10104 10105 10106 10107 10108 10109 10111 10113 10115 10116 10117 10120 10123 10127 10130 10131 10132 10134 10136 10138 10138 10139 10142 10146 10150 10152 10155 10156 10158 10160 10161 10163 10164 10164 10164 10165
10070 10069 10068 10067 10067 10066 10066 10066 10065 10064 10062 10060 10058 10056 10054 10053 10052 10051 10050 10050 10050 10050 10049 10048 10047 10048 10049 10050 10050 10050 10051 10053 10055 10057 10058 10059 10061 10062 10064 10065 10066 10068 10071 10072 10074 10076 10078 10081 10083 10086 10088 10089 10090 10092 10094 10095 10096 10098 10098 10099 10102 10106 10110 10111 10112 10114 10116 10119 10121 10120 10122 10126 10131 10133 10135 10136 10138 10139 10141 10144 10146 10147 10148 10149 10149
10052 10050 10048 10048 10048 10049 10049 10049 10048 10047 10046 10044 10042 10041 10039 10037 10035 10033 10032 10032 10032 10033 10034 10033 10032 10032 10033 10034 10035 10036 10036 10037 10037 10039 10040 10042 10044 10045 10047 10049 10051 10052 10053 10055 10056 10058 10061 10064 10066 10068 10070 10072 10074 10077 10078 10079 10079 10080 10081 10082 10085 10089 10091 10093 10094 10096 10099 10102 10103 10104 10106 10111 10114 10115 10117 10118 10120 10121 10123 10127 10129 10130 10130 10132 10133
10034 10032 10030 10029 10029 10030 10031 10031 10031 10031 10030 10029 10027 10026 10024 10022 10019 10016 10014 10013 10013 10015 10016 10017 10017 10017 10018 10018 10018 10019 10021 10022 10022 10023 10023 10024 10025 10027 10029 10032 10034 10035 10037 10039 10040 10042 10045 10047 10049 10051 10053 10055 10058 10061 10062 10062 10062 10063 10064 10065 10068 10071 10074 10076 10077 10079 10083 10086 10087 10088 10090 10093 10095 10096 10098 10100 10102 10104 10106 10109 10111 10112 10113 10114 10115
10018 10015 10014 10012 10011 10011 10012 10012 10013 10013 10012 10011 10010 10009 10008 10007 10004 10002 9999 9997 9996 9996 9998 9999 10001 10002 10003 10003 10002 10002 10004 10005 10006 10007 10008 10009 10010 10010 10012 10013 10015 10018 10020 10022 10024 10027 10029 10030 10032 10033 10036 10039 10042 10044 10044 10045 10045 10046 10048 10049 10051 10054 10056 10058 10060 10063 10066 10069 10070 10071 10073 10075 10076 10077 10079 10083 10085 10086 10089 10091 10092 10093 10095 10096 10097
10003 10000 9998 9996 9995 9994 9994 9994 9994 9994 9994 9993 9992 9991 9990 9988 9988 9986 9984 9982 9981 9980 9980 9982 9984 9986 9987 9987 9987 9986 9986 9986 9988 9990 9992 9994 9996 9997 9997 9997 9998 10000 10002 10004 10007 10009 10011 10013 10014 10017 10019 10022 10024 10026 10027 10028 10029 10030 10031 10032 10034 10037 10039 10041 10043 10046 10048 10051 10053 10055 10057 10059 10059 10060 10061 10065 10067 10069 10070 10072 10074 10076 10077 10078 10079
9988 9985 9983 9981 9979 9978 9977 9976 9975 9974 9974 9974 9975 9974 9974 9973 9972 9970 9968 9966 9965 9964 9965 9966 9968 9970 9971 9972 9972 9971 9970 9970 9970 9972 9975 9977 9980 9982 9983 9983 9984 9985 9986 9987 9989 9991 9993 9995 9997 10000 10003 10005 10007 10009 10010 10011 10012 10012 10014 10016 10018 10020 10023 10025 10026 10029 10031 10034 10036 10038 10040 10042 10043 10043 10045 10047 10049 10050 10052 10054 10056 10058 10059 10061 10061
9973 9970 9968 9966 9964 9962 9960 9958 9957 9956 9956 9956 9956 9957 9958 9958 9957 9955 9952 9950 9949 9948 9949 9951 9953 9954 9955 9955 9956 9956 9957 9957 9956 9956 9958 9960 9962 9964 9966 9968 9970 9971 9972 9973 9973 9974 9976 9977 9979 9982 9985 9988 9990 9992 9993 9993 9994 9995 9997 9999 10001 10003 10006 10008 10010 10013 10015 10017 10019 10020 10023 10025 10026 10027 10029 10031 10032 10033 10034 10037 10039 10040 10042 10043 10043
9959 9956 9953 9951 9949 9948 9946 9943 9941 9940 9939 9940 9939 9939 9941 9942 9941 9940 9937 9936 9935 9934 9934 9936 9938 9938 9939 9939 9940 9941 9943 9944 9943 9942 9942 9943 9944 9946 9948 9950 9953 9955 9956 9958 9959 9960 9961 9962 9963 9965 9968 9971 9973 9974 9975 9976 9977 9978 9980 9983 9985 9987 9989 9991 9994 9996 9999 10000 10001 10002 10004 10007 10009 10011 10013 10014 10015 10016 10017 10019 10022 10024 10025 10025 10025
9944 9941 9940 9938 9936 9934 9933 9930 9927 9925 9924 9925 9925 9924 9925 9924 9923 9923 9923 9922 9923 9922 9921 9922 9921 9921 9921 9923 9925 9927 9928 9929 9929 9928 9928 9928 9928 9930 9931 9933 9936 9938 9940 9941 9943 9946 9947 9948 9949 9950 9952 9955 9956 9956 9957 9959 9961 9962 9963 9967 9970 9970 9972 9974 9977 9979 9981 9983 9984 9985 9987 9989 9991 9993 9995 9997 9998 9999 10000 10003 10005 10007 10007 10007 10008
9929 9927 9926 9925 9923 9921 9919 9917 9915 9913 9910 9910 9911 9910 9909 9908 9906 9906 9907 9908 9908 9908 9907 9907 9905 9905 9906 9908 9910 9913 9914 9914 9914 9914 9914 9914 9913 9914 9915 9917 9920 9921 9923 9925 9928 9930 9932 9934 9935 9936 9937 9939 9940 9939 9940 9942 9944 9945 9947 9952 9954 9953 9955 9958 9959 9962 9964 9966 9967 9968 9969 9971 9973 9975 9977 9978 9979 9982 9984 9986 9988 9990 9990 9990 9991
9916 9913 9912 9911 9910 9908 9906 9904 9903 9901 9898 9897 9898 9896 9895 9893 9891 9891 9892 9892 9892 9893 9892 9890 9890 9891 9893 9894 9896 9897 9899 9899 9900 9900 9900 9900 9899 9899 9899 9901 9904 9905 9906 9908 9911 9914 9916 9918 9920 9921 9923 9925 9925 9924 9924 9926 9927 9927 9930 9937 9938 9937 9939 9942 9942 9944 9947 9948 9950 9951 9951 9953 9955 9957 9957 9959 9961 9964 9965 9967 9969 9970 9971 9973 9974
9903 9901 9901 9899 9897 9894 9892 9891 9890 9889 9887 9887 9887 9885 9883 9880 9878 9878 9878 9877 9877 9877 9876 9875 9876 9879 9880 9880 9881 9882 9884 9885 9885 9886 9886 9886 9886 9886 9886 9886 9889 9891 9892 9892 9894 9897 9899 9901 9903 9905 9907 9909 9909 9908 9909 9911 9912 9911 9913 9920 9922 9921 9923 9925 9925 9927 9929 9930 9932 9934 9935 9936 9937 9937 9938 9940 9942 9945 9946 9948 9949 9950 9953 9956 9956
9891 9890 9889 9888 9884 9880 9879 9878 9877 9877 9877 9876 9876 9874 9871 9869 9867 9866 9865 9864 9863 9862 9861 9862 9864 9866 9866 9866 9866 9867 9869 9870 9871 9871 9871 9871 9872 9872 9873 9873 9874 9876 9878 9878 9879 9881 9883 9885 9886 9888 9890 9891 9891 9891 9892 9894 9895 9894 9897 9903 9906 9905 9907 9908 9909 9910 9912 9913 9915 9917 9919 9920 9919 9919 9920 9921 9923 9925 9926 9927 9930 9933 9936 9938 9936
9881 9879 9878 9876 9872 9867 9865 9864 9864 9865 9865 9864 9864 9863 9860 9858 9857 9855 9854 9853 9851 9850 9851 9852 9852 9852 9851 9852 9853 9854 9855 9856 9856 9857 9856 9856 9857 9858 9859 9860 9860 9862 9863 9864 9865 9866 9868 9869 9871 9872 9874 9875 9875 9875 9875 9877 9878 9878 9880 9885 9889 9890 9890 9891 9892 9893 9895 9897 9899 9901 9902 9903 9902 9903 9903 9904 9905 9907 9908 9910 9913 9916 9917 9917 9917
9872 9869 9867 9865 9861 9856 9853 9852 9852 9853 9853 9852 9852 9850 9849 9848 9847 9845 9843 9842 9841 9841 9841 9840 9839 9839 9839 9839 9840 9841 9842 9842 9842 9843 9842 9842 9843 9844 9845 9846 9846 9847 9848 9849 9850 9851 9853 9854 9855 9856 9857 9858 9858 9858 9859 9860 9861 9862 9863 9868 9873 9874 9874 9875 9876 9877 9880 9881 9883 9884 9885 9885 9885 9886 9887 9887 9888 9891 9893 9895 9897 9898 9899 9900 9901
9863 9860 9857 9855 9852 9849 9846 9844 9842 9841 9841 9840 9839 9838 9837 9836 9835 9833 9832 9831 9831 9831 9830 9829 9828 9828 9828 9828 9828 9829 9830 9830 9829 9830 9829 9828 9828 9829 9831 9831 9832 9832 9833 9833 9834 9836 9837 9838 9839 9840 9841 9842 9842 9843 9844 9845 9846 9846 9847 9851 9857 9858 9858 9859 9860 9861 9863 9865 9867 9868 9868 9868 9870 9871 9871 9871 9872 9874 9878 9881 9881 9881 9882 9884 9886
9853 9851 9848 9846 9843 9840 9838 9836 9834 9832 9830 9829 9828 9827 9825 9824 9823 9822 9822 9821 9820 9820 9818 9818 9818 9817 9816 9816 9817 9817 9817 9817 9816 9816 9816 9816 9815 9815 9816 9817 9817 9818 9818 9818 9819 9821 9822 9823 9824 9825 9826 9827 9828 9828 9829 9829 9830 9831 9831 9835 9840 9842 9843 9844 9845 9846 9848 9849 9850 9851 9851 9852 9854 9855 9854 9855 9857 9859 9862 9865 9865 9865 9866 9869 9871
9842 9841 9839 9836 9833 9830 9828 9826 9825 9824 9821 9819 9819 9817 9814 9813 9812 9812 9812 9811 9809 9808 9808 9808 9806 9805 9804 9804 9804 9805 9804 9804 9803 9804 9804 9804 9803 9803 9803 9804 9804 9805 9805 9805 9806 9807 9808 9809 9810 9811 9812 9813 9813 9814 9814 9814 9815 9816 9817 9820 9824 9827 9829 9830 9831 9832 9833 9833 9833 9833 9834 9836 9838 9839 9838 9839 9843 9846 9848 9849 9850 9851 9852 9853 9856
9833 9831 9829 9827 9824 9822 9819 9817 9816 9815 9812 9810 9809 9807 9805 9804 9804 9803 9802 9801 9800 9799 9799 9798 9796 9794 9794 9793 9793 9793 9793 9792 9792 9792 9792 9792 9792 9792 9792 9792 9793 9793 9793 9793 9794 9795 9796 9796 9797 9798 9798 9798 9799 9800 9800 9801 9802 9802 9803 9806 9810 9814 9816 9816 9817 9817 9817 9817 9817 9818 9819 9821 9823 9824 9824 9826 9830 9833 9834 9834 9835 9836 9838 9839 9841
9825 9822 9820 9818 9815 9813 9811 9808 9806 9805 9803 9802 9800 9798 9796 9795 9794 9794 9793 9791 9790 9790 9789 9788 9786 9785 9784 9783 9783 9782 9782 9781 9781 9781 9781 9781 9781 9781 9781 9781 9781 9781 9781 9782 9782 9783 9783 9784 9784 9785 9785 9785 9785 9786 9788 9789 9789 9789 9790 9792 9796 9800 9802 9802 9801 9801 9802 9803 9803 9804 9805 9806 9808 9810 9812 9814 9816 9818 9819 9819 9820 9821 9824 9825 9827
9818 9815 9812 9809 9807 9804 9802 9800 9797 9796 9794 9793 9791 9790 9788 9786 9784 9783 9783 9782 9781 9780 9779 9778 9777 9776 9775 9774 9773 9772 9772 9771 9771 9770 9770 9770 9770 9770 9770 9770 9770 9770 9770 9771 9771 9771 9771 9771 9771 9772 9772 9772 9773 9774 9775 9777 9777 9777 9777 9778 9781 9785 9788 9789 9788 9788 9789 9790 9791 9793 9793 9793 9794 9797 9799 9801 9802 9803 9803 9804 9805 9807 9809 9811 9813
9812 9809 9805 9802 9799 9796 9794 9792 9789 9787 9785 9784 9783 9781 9779 9777 9775 9774 9773 9772 9771 9770 9769 9768 9767 9766 9766 9765 9763 9762 9762 9761 9761 9760 9759 9759 9759 9759 9759 9759 9758 9759 9759 9759 9760 9760 9759 9759 9759 9760 9760 9761 9761 9762 9763 9764 9764 9765 9766 9767 9769 9772 9775 9777 9778 9777 9778 9778 9780 9782 9782 9781 9781 9783 9786 9788 9789 9789 9789 9790 9791 9793 9795 9797 9799
9805 9802 9799 9795 9792 9789 9787 9784 9782 9779 9777 9776 9774 9772 9770 9768 9767 9765 9764 9763 9762 9761 9759 9758 9758 9757 9756 9755 9754 9753 9752 9752 9751 9750 9749 9748 9748 9748 9748 9748 9748 9748 9749 9749 9749 9749 9748 9748 9748 9748 9749 9749 9750 9751 9751 9751 9753 9754 9756 9756 9757 9759 9761 9764 9766 9767 9767 9766 9767 9769 9769 9768 9767 9769 9772 9775 9776 9777 9777 9778 9779 9781 9782 9784 9786
9799 9796 9792 9789 9786 9782 9780 9777 9775 9772 9770 9768 9766 9764 9762 9760 9759 9757 9756 9755 9754 9752 9751 9750 9748 9747 9746 9746 9745 9744 9743 9742 9741 9741 9740 9739 9738 9738 9738 9737 9738 9738 9738 9739 9738 9738 9738 9738 9738 9738 9738 9738 9739 9740 9741 9741 9742 9744 9745 9745 9747 9748 9749 9752 9754 9756 9756 9755 9755 9755 9756 9755 9754 9756 9759 9761 9763 9764 9765 9766 9767 9769 9770 9771 9773